Change the Weather History Date:

Wednesday, October 3, 2012

  Actual Average Record
Temperature  
Mean Temperature 59 °F -  
Max Temperature 72 °F 74 °F 89 °F (1959)
Min Temperature 46 °F 47 °F 27 °F (1974)
Degree Days  
Heating Degree Days 6    
Growing Degree Days 9 (Base 50)    
Moisture  
Dew Point 53 °F    
Average Humidity 86    
Maximum Humidity 100    
Minimum Humidity 48    
Precipitation  
Precipitation 0.00 in - - ()
Sea Level Pressure  
Sea Level Pressure 30.14 in    
Wind  
Wind Speed 1 mph (SSW)    
Max Wind Speed 9 mph    
Max Gust Speed -    
Visibility 7 miles    
Events Fog    
Averages and records for this station are not official NWS values.
T = Trace of Precipitation, MM = Missing Value Source: NWS Daily Summary

Daily Weather History Graph

Daily Weather History Graph

Search for Another Location

Airport or City:

Trip Planner

Search our weather history database for the weather conditions in past years. The results will help you decide how hot, cold, wet, or windy it might be!

Date:

Astronomy

Oct. 03, 2012 Rise Set
Actual Time 6:36 AM CDT 6:19 PM CDT
Civil Twilight 6:10 AM CDT 6:44 PM CDT
Nautical Twilight 5:40 AM CDT 7:14 PM CDT
Astronomical Twilight 5:10 AM CDT 7:45 PM CDT
Moon 8:17 PM CDT (10/3) 9:53 AM CDT (10/3)
Length of Visible Light 12h 34m
Length of Day
11h 42m
Waning Gibbous, 88% of the Moon is Illuminated
Oct 3
Waning Gibbous
Oct 8
Last Quarter
Oct 15
New
Oct 21
First Quarter
Oct 29
Full

Hourly Weather History & Observations

Time (CDT) Temp. Dew Point Humidity Pressure Visibility Wind Dir Wind Speed Gust Speed Precip Events Conditions
12:56 AM 59.9 °F 56.8 °F 90% 30.03 in 10.0 mi Calm Calm - N/A   Overcast
1:56 AM 57.9 °F 55.9 °F 93% 30.04 in 10.0 mi Calm Calm - N/A   Mostly Cloudy
2:56 AM 56.8 °F 55.9 °F 97% 30.06 in 10.0 mi Calm Calm - N/A   Overcast
6:34 AM 48.2 °F 48.2 °F 100% 30.11 in 1.8 mi Calm Calm - N/A   Clear
6:43 AM 46.4 °F 46.4 °F 100% 30.12 in 3.0 mi Calm Calm - N/A   Clear
6:56 AM 47.8 °F 47.8 °F 100% 30.14 in 4.0 mi Calm Calm - N/A   Clear
7:06 AM 48.2 °F 48.2 °F 100% 30.12 in 1.0 mi Calm Calm - N/A   Mist
7:08 AM 48.2 °F 48.2 °F 100% 30.12 in 0.2 mi Calm Calm - N/A Fog Fog
7:16 AM 50.0 °F 50.0 °F 100% 30.12 in 0.2 mi Calm Calm - N/A Fog Fog
8:23 AM 53.6 °F 53.6 °F 100% 30.14 in 0.5 mi Calm Calm - N/A Fog Fog
8:27 AM 55.4 °F 55.4 °F 100% 30.14 in 1.0 mi Calm Calm - N/A   Mist
8:29 AM 55.4 °F 55.4 °F 100% 30.14 in 1.8 mi Calm Calm - N/A   Mostly Cloudy
8:32 AM 55.4 °F 55.4 °F 100% 30.14 in 4.0 mi Calm Calm - N/A   Clear
8:56 AM 59.0 °F 59.0 °F 100% 30.16 in 10.0 mi Calm Calm - N/A   Clear
10:56 AM 68.0 °F 52.9 °F 58% 30.16 in 10.0 mi SW 6.9 mph - N/A   Clear
11:56 AM 70.9 °F 54.0 °F 55% 30.15 in 10.0 mi SE 8.1 mph - N/A   Partly Cloudy
12:56 PM 72.0 °F 52.0 °F 49% 30.14 in 10.0 mi ENE 9.2 mph - N/A   Clear
1:56 PM 70.9 °F 50.0 °F 48% 30.12 in 10.0 mi SW 8.1 mph - N/A   Clear
2:56 PM 70.0 °F 52.9 °F 55% 30.12 in 10.0 mi SSW 5.8 mph - N/A   Clear
3:56 PM 70.9 °F 54.0 °F 55% 30.13 in 10.0 mi SW 6.9 mph - N/A   Clear
4:56 PM 70.9 °F 54.9 °F 57% 30.14 in 10.0 mi South 6.9 mph - N/A   Clear
5:56 PM 68.0 °F 55.9 °F 65% 30.15 in 10.0 mi Calm Calm - N/A   Clear
6:56 PM 59.0 °F 54.9 °F 86% 30.17 in 10.0 mi Calm Calm - N/A   Clear
7:56 PM 54.9 °F 54.0 °F 97% 30.18 in 10.0 mi Calm Calm - N/A   Clear
8:56 PM 52.9 °F 52.9 °F 100% 30.20 in 10.0 mi Calm Calm - N/A   Clear
9:56 PM 50.9 °F 50.9 °F 100% 30.21 in 10.0 mi Calm Calm - N/A   Clear
10:56 PM 50.9 °F 50.9 °F 100% 30.22 in 7.0 mi Calm Calm - N/A   Clear
11:56 PM 52.9 °F 52.9 °F 100% 30.22 in 8.0 mi Calm Calm - N/A   Clear